This is the latest recevied weather packets stored in our database for station/object WA6GRA. If no packets are shown the sender has not sent any weather packets the latest 10 day(s).
| Time | Temp. | Humidity | Pressure | Rain* | Wind** | Luminosity | Snow |
|---|---|---|---|---|---|---|---|
| 1777299155 | 11.11° C | 89% | 1015.6 hPa | 0 mm | - | 29 W/m² | - |
| 1777298554 | 11.11° C | 90% | 1015.5 hPa | 0 mm | - | 18 W/m² | - |
| 1777297952 | 11.11° C | 90% | 1015.7 hPa | 0 mm | - | 9 W/m² | - |
| 1777297353 | 11.11° C | 90% | 1015.4 hPa | 0 mm | - | 7 W/m² | - |
| 1777296752 | 10.56° C | 90% | 1015.2 hPa | 0 mm | - | 4 W/m² | - |
| 1777296149 | 11.11° C | 91% | 1015 hPa | 0 mm | - | 2 W/m² | - |
| 1777295549 | 11.11° C | 91% | 1015 hPa | 0 mm | - | 1 W/m² | - |
| 1777294945 | 11.11° C | 90% | 1014.7 hPa | 0 mm | - | 0 W/m² | - |
| 1777294342 | 11.11° C | 90% | 1014.7 hPa | 0 mm | - | 0 W/m² | - |
| 1777293742 | 11.11° C | 89% | 1014.7 hPa | 0 mm | - | 0 W/m² | - |
| 1777293138 | 11.11° C | 89% | 1014.8 hPa | 0 mm | - | 0 W/m² | - |
| 1777292534 | 11.11° C | 88% | 1014.6 hPa | 0 mm | - | 0 W/m² | - |
| 1777291932 | 11.11° C | 86% | 1014.4 hPa | 0 mm | - | 0 W/m² | - |
| 1777291332 | 11.67° C | 86% | 1014.7 hPa | 0 mm | - | 0 W/m² | - |
| 1777290731 | 11.67° C | 85% | 1014.7 hPa | 0 mm | - | 0 W/m² | - |
| 1777290129 | 11.67° C | 84% | 1014.6 hPa | 0 mm | - | 0 W/m² | - |
| 1777289528 | 11.67° C | 83% | 1014.7 hPa | 0 mm | - | 0 W/m² | - |
| 1777288927 | 11.67° C | 84% | 1014.7 hPa | 0 mm | - | 0 W/m² | - |
| 1777288326 | 11.67° C | 84% | 1014.6 hPa | 0 mm | - | 0 W/m² | - |
| 1777287726 | 11.67° C | 83% | 1014.7 hPa | 0 mm | - | 0 W/m² | - |
| 1777287123 | 11.67° C | 80% | 1014.8 hPa | 0 mm | - | 0 W/m² | - |
| 1777286518 | 11.67° C | 81% | 1014.5 hPa | 0 mm | - | 0 W/m² | - |
| 1777285912 | 11.67° C | 81% | 1014.3 hPa | 0 mm | - | 0 W/m² | - |
| 1777285313 | 11.67° C | 80% | 1014.4 hPa | 0 mm | - | 0 W/m² | - |
| 1777284713 | 11.67° C | 80% | 1014.3 hPa | 0 mm | - | 0 W/m² | - |
* Rain latest hour (hover to see other rain measurements)
** Current wind speed in m/s (hover to see current wind gust speed)